Weather in Novyy Sharap

Russia / Novosibirsk Oblast     54°24′35″N   82°01′55″E
temp.,
°C
wind,
m/s
gust,
m/s
humid.,
%
clouds,
%
prec.,
mm/h
press.,
hPa
HPBL,
m
27 february, sat
sat2701:00−25sw61294100 0.1 1036554
04:00−25sw51094100 0.1 1036489
07:00−25sw4997100 0.1 1037415
10:00−24sw5994100 0.1 1037474
13:00−23sw5792100 0.1 1037535
16:00−22sw4691100 0.0 1038564
19:00−25sw3497100 0.1 103873
22:00−29sw349731 0.0 103950
28 february, sun
sun2801:00−30ssw349817 0.0 103937
04:00−30ssw239934 0.0 103822
07:00−29s339640 0.0 103823
10:00−27sse359646 0.0 1037123
13:00−20sse469148 0.0 1034324
16:00−16sse4788100 0.0 1031491
19:00−14se3795100 0.1 1027254
22:00−14se41093100 0.1 1024297
1 march, mon
mon101:00−11se41095100 0.3 1020419
04:00−8sse61195100 1.1 1016625
07:00−7sse61195100 2.8 1012630
10:00−3s71496100 1.6 1009812
13:000sw712100100 2.9 1007657
16:000sw71399100 1.2 1006732
19:000sw81496100 3.1 1005902
22:00−1wsw71492100 0.8 1006668
2 march, tue
tue201:00−4sw5109698 0.8 1008401
04:00−10wsw71392100 0.5 1010486
07:00−13wsw61293100 0.6 1013398
10:00−15wsw5894100 0.1 1016332
13:00−14wsw5793100 0.1 1018378
16:00−13wsw4791100 0.0 1018451
19:00−16w229695 0.1 101820
22:00−18s119898 0.0 101820
3 march, wed
wed301:00−16ese119799 0.1 101620
04:00−16e1297100 0.3 101526
07:00−15ene1297100 0.6 101529
10:00−14nnw0095100 0.4 1015103
13:00−12w3491100 0.8 1017419
16:00−11wsw4689100 0.2 1018551
19:00−14wsw359496 0.2 1021107
22:00−17wsw339686 0.0 102329